Location: Unspecified
(0.0000°N, 0.0000°E)
Time: 13:26:57
(UTC+00:00)

Transit 2A - Pass Details

Date: 16 December 2021
Orbit: 591 x 967 km, 66.7° (Epoch: 17 January)

Event Time Altitude Azimuth Distance (km) Brightness Sun altitude
Rises 20:08:52 0° 223° (SW) 3,051 10.1 -30.2°
Reaches altitude 10° 20:11:24 10° 235° (SW) 2,192 9.2 -30.8°
Maximum altitude 20:15:35 27° 292° (WNW) 1,442 7.7 -31.7°
Enters shadow 20:16:26 26° 308° (NW) 1,499 7.6 -31.9°
